星链-5225 (STARLINK-5225 )

导读 | 豆包AI

STARLINK-5225是美国太空探索技术公司 SpaceX 星链星座中的卫星,于2022年10月20日发射入轨,隶属于美国Starlink计划,该计划旨在为全球提供高速互联网接入服务。作为星链互联网星座的组成部分,它承担着为地面用户提供低延迟、宽带互联网接入的任务,推进了全球卫星互联网络的组网部署进程。

Basic Information
目录编号:
54063
目录名称:
STARLINK-5225
国际标识:
2022-136N
轨道中心:
EARTH
卫星名称:
星链-5225
卫星全名:
星链-5225 (STARLINK-5225 )
卫星状态:
已陨落 最后检测时间 2026-02-08
发射日期:
2022-10-20 UTC
国别 :
美国 (US)
星等 :
--
Orbit Information
数据来源 国际轨道数据
星历时间: 2026-02-08T22:33:31+0800
轨道信息已过期34天
半长轴: 6521.599km
偏心率: 0.0006135
轨道倾角: 53.204°
近地点辐角 236.786°
升交点赤经 87.417°
平近点角 123.260°
近地点: 139.46km
远地点: 147.464km
周期: 87.356分钟
每日圈数: 16.484346
Detailed Information
固有亮度:
5
最大亮度:
2.5
卫星平台:
Starlink v1.5
覆盖范围:
全球
运营商:
太空探索技术公司
运营商所在国:
美国
制造商(研发单位):
太空探索技术公司
制造商所在国:
美国
使用方式:
暂无
Satellite Introduction
星链(Starlink)计划是由太空探索技术公司(SpaceX)提出的一个巨型低轨卫星互联网星座项目,计划在2019年至2024年间在太空搭建由约1.2万颗卫星组成的“星链”网络,其中1584颗将部署在地球上空550千米处的近地轨道,并从2020年开始工作。该卫星仍在工作。